Location: Buzan
(42.9400°N, 0.9659°E)
Time: 14:45:14
(UTC+00:00)

Daily predictions for brighter satellites

Satellite Brightness Start Highest point End
(mag) Time Altitude Azimuth Time Altitude Azimuth Time Altitude Azimuth
Cosmos 2219 3.4 19:47:13 10° NNW 19:52:48 60° ENE 19:58:20 10° SE
Cosmos 2208 Rocket 4.1 19:49:36 10° NNW 19:55:05 88° ENE 20:00:27 10° SSE
Cosmos 1315 Rocket 2.8 19:51:13 10° N 19:55:19 85° E 19:59:19 10° S
SJ-6B 3.3 19:52:21 10° S 19:56:06 59° W 19:59:49 10° NNW
USA 186 3.1 19:55:23 10° SSW 19:57:31 27° W 19:59:37 10° NW
Sich 1 4.4 19:55:14 10° NNW 19:59:21 42° W 20:03:25 10° SSW
OBJECT-B 3.1 19:57:05 10° SSW 19:59:24 21° W 20:01:43 10° NW
ATLAS 5 CENTAUR R/B 4.3 19:52:01 10° WSW 20:00:39 15° SW 20:05:20 10° S
Meteor 1-11 Rocket 4.1 19:55:16 10° N 20:01:11 58° ENE 20:07:00 10° SSE
Cosmos 1656 4.5 19:56:42 10° SW 20:02:11 57° WNW 20:07:37 10° NNE
Cosmos 2263 Rocket 3.8 19:58:06 10° N 20:02:19 21° NE 20:06:30 10° E
Cosmos 1470 Rocket 3.9 19:59:15 10° N 20:03:28 49° ENE 20:07:38 10° SSE
Ariane Rocket 3.6 20:00:45 10° SE 20:05:29 42° ENE 20:10:15 10° N
OAO 3 Rocket 4.2 20:01:42 10° WSW 20:06:03 32° S 20:10:26 10° ESE
Cosmos 1743 3.5 20:03:10 10° N 20:06:39 33° ENE 20:10:05 10° SE
BREEZE-M DEB (TANK) 3.9 20:06:49 10° W 20:10:03 32° NNW 20:12:06 10° NE
Terra 3.9 20:10:38 10° E 20:12:38 13° ENE 20:14:38 10° NE
IRAS Rocket 4.4 20:07:52 10° NNE 20:13:24 54° ESE 20:18:54 10° S
Resurs 01 Rocket 1.7 20:09:49 10° SSE 20:14:08 61° ENE 20:18:30 10° N
Aureole 1 Rocket 2.2 20:12:10 10° S 20:15:25 59° ESE 20:18:22 10° NNE
Cosmos 1515 Rocket 3.7 20:12:01 10° S 20:16:16 57° E 20:20:35 10° NNE
Landsat 7 4.0 20:14:53 10° S 20:19:35 76° WSW 20:24:20 10° NNW
Cosmos 2227 Rocket 2.4 20:15:09 10° NNW 20:20:50 75° WSW 20:26:28 10° SSE
Cosmos 921 Rocket 3.8 20:17:51 10° N 20:22:06 38° ENE 20:25:38 14° SE
PSLV R/B 3.9 20:19:42 10° NNE 20:23:46 86° WNW 20:27:47 10° SSW
Cosmos 1980 Rocket 2.3 20:22:34 10° S 20:28:02 56° ESE 20:33:35 10° NNE
CARTOSAT-1 4.2 20:26:14 14° SE 20:29:39 40° ENE 20:33:42 10° N
Cosmos 2228 Rocket 4.2 20:29:01 14° SE 20:32:04 27° E 20:35:54 10° NNE
Cosmos 1464 Rocket 4.0 20:26:48 10° S 20:32:57 73° E 20:39:06 10° NNE
Cosmos 2344 3.4 20:28:28 10° SSW 20:36:04 75° ESE 20:43:36 10° NE
IRS-1A Rocket 4.4 20:30:29 10° SSE 20:36:07 83° WSW 20:41:56 10° NNW
Cosmos 2322 Rocket 4.0 20:36:18 11° ESE 20:37:10 12° E 20:38:59 10° ENE
ARGOS Delta rocket 4.2 20:32:07 10° N 20:37:39 89° WNW 20:43:03 10° SSW
Cosmos 2369 3.6 20:32:04 10° SSW 20:37:41 78° ESE 20:43:22 10° NNE
ISS -2.0 20:35:19 10° NW 20:38:16 27° NNE 20:41:11 10° E
Cosmos 1354 Rocket 4.1 20:33:27 10° S 20:38:36 59° ESE 20:43:49 10° NNE
Spot 2 Rocket 4.4 20:35:42 15° SE 20:39:13 34° ENE 20:43:43 10° N
SPOT 3 Rocket 3.8 20:36:10 15° SE 20:40:18 54° ENE 20:45:20 10° N
ATLAS 2AS CENTAUR R/B 3.0 20:33:06 10° SSW 20:40:42 58° ESE 20:48:08 10° NE
Cosmos 1536 3.0 20:38:17 10° NNW 20:42:18 73° W 20:46:09 11° S
Okean 1 3.6 20:40:11 15° SSE 20:43:17 46° E 20:47:09 10° NNE
Meteor 1-19 Rocket 4.3 20:40:03 10° S 20:45:19 52° E 20:50:33 10° NNE
NOSS 3-4 (A) 4.4 20:40:11 10° WSW 20:45:41 48° NW 20:51:40 10° NNE
NOSS 3-4 (C) 4.4 20:40:13 10° WSW 20:45:45 49° NW 20:51:45 10° NNE
Cosmos 1697 Rocket 3.6 20:41:25 10° SW 20:46:56 53° WNW 20:52:29 10° NNE
RESURS DK-1 2.6 20:43:01 10° S 20:46:57 45° ESE 20:50:54 10° NE
H-2A R/B 3.5 20:43:32 10° N 20:47:18 37° WNW 20:51:05 10° SW
Nadezhda 4 Rocket 4.0 20:42:50 10° N 20:49:03 70° E 20:54:07 16° SSE
SL-4 R/B 2.5 20:45:04 10° WNW 20:49:32 54° SW 20:52:09 21° SSE
ARIANE 5 R/B 4.1 20:53:39 16° ESE 20:55:51 24° ENE 20:59:25 10° NNE
MetOp-B 4.2 20:52:35 15° SSE 20:57:08 85° WSW 21:02:31 10° NNW
Cosmos 2297 Rocket 4.1 20:52:46 10° NW 20:57:15 25° WSW 21:01:44 10° SSW
Cosmos 44 Rocket 4.3 20:54:16 10° NNW 20:58:33 34° NE 21:01:28 18° ESE
Cosmos 1184 Rocket 4.0 20:59:50 10° SSW 21:02:40 37° WNW 21:05:32 10° N
NOSS 2-1 (E) 4.2 21:08:10 23° E 21:08:10 23° E 21:09:59 10° ENE
ATLAS 3B R/B 3.8 21:00:39 10° NNW 21:07:31 40° NE 21:13:24 15° ESE
Meteor 2-9 Rocket 4.2 21:02:32 10° N 21:08:20 80° E 21:12:06 22° SSE
Cosmos 1975 3.5 21:08:19 10° N 21:12:11 41° ENE 21:13:33 30° ESE
Timation 2 Rocket 4.2 21:05:49 10° NNW 21:12:27 80° WSW 21:17:06 22° SSE
Cosmos 2026 Rocket 4.3 21:07:26 10° N 21:13:28 53° ENE 21:17:01 25° SE
Cosmos 389 Rocket 4.0 21:10:20 10° NNW 21:13:30 32° W 21:16:04 14° SSW
ERS-1 Rocket 3.1 21:12:32 26° SE 21:15:16 60° ENE 21:20:14 10° N
SL-16 R/B 2.8 21:13:29 25° SSE 21:15:55 36° ESE 21:21:03 10° NE
CZ-4B R/B 4.2 21:15:40 10° NNW 21:17:52 17° WNW 21:20:01 10° WSW
Helios 1A Rocket 2.8 21:19:01 31° S 21:20:53 84° WSW 21:24:55 10° NNW
GENESIS II 4.2 21:20:46 32° S 21:22:12 52° ESE 21:26:01 10° NE
CZ-2C R/B 3.8 21:20:27 10° NNE 21:25:13 68° ESE 21:27:47 27° S
Cosmos 1733 Rocket 3.9 21:22:19 10° N 21:26:28 37° ENE 21:27:44 30° ESE
SJ 16-02 2.1 21:26:30 10° SW 21:30:44 51° WNW 21:35:02 10° N
Meteor 1-18 Rocket 4.2 21:26:49 19° S 21:31:06 87° E 21:36:45 10° N
Cosmos 1627 Rocket 4.5 21:28:24 10° N 21:34:39 79° E 21:38:05 29° SSE
Cosmos 2278 4.0 21:30:48 10° SSW 21:36:25 68° WNW 21:42:06 10° NNE
ASTRO F (AKARI) 4.0 21:37:45 74° S 21:38:00 88° W 21:41:09 10° NNW
Cosmos 2292 Rocket 2.4 21:35:06 10° N 21:38:05 81° W 21:38:15 75° SSW
Cosmos 1862 Rocket 4.0 21:37:31 39° SE 21:38:27 45° E 21:42:43 10° NNE
Cosmos 2360 Rocket 3.2 21:40:42 26° ESE 21:41:05 26° ESE 21:45:42 10° NE
BREEZE M DEB (TANK) 4.1 21:37:55 10° WNW 21:42:31 82° SSW 21:55:47 18° SE
Meteor 2-15 4.4 21:41:00 29° S 21:44:11 71° E 21:50:14 10° NNE
Cosmos 2263 Rocket 2.3 21:41:12 10° NNW 21:46:44 66° WSW 21:49:11 33° S
NOSS 2-1 (C) 2.8 21:46:44 47° SW 21:47:34 81° NW 21:50:46 10° NE
SPOT 5 3.4 21:45:43 28° S 21:48:27 60° W 21:53:33 10° NNW
Terra 1.8 21:47:57 39° S 21:49:42 82° WSW 21:54:30 10° NNW
Cosmos 1441 Rocket 3.6 21:51:04 44° E 21:51:04 44° E 21:54:25 10° NNE
Resurs 01 Rocket 4.2 21:49:02 10° WSW 21:51:02 13° W 21:53:02 10° WNW
Cosmos 1346 Rocket 2.7 21:50:23 47° SSW 21:51:29 85° W 21:55:31 10° N
Cosmos 482 Debris 4.1 21:48:20 10° WNW 21:51:34 81° SW 21:52:24 55° SE
SAR-Lupe-1 3.9 21:51:11 10° NNE 21:54:47 68° ESE 21:54:47 68° ESE
Cosmos 2279 Rocket 4.0 21:53:29 35° SSE 21:56:13 69° E 22:02:24 10° NNE
NOSS 2-1 (D) 3.2 21:56:58 36° WSW 21:58:02 59° NW 22:01:11 10° NNE
Cosmos 990 Rocket 4.2 21:57:54 44° SE 21:59:01 52° ESE 22:04:07 10° NNE
USA 215 3.6 21:56:17 10° ENE 22:02:23 40° SE 22:03:42 36° SSE
Iridium 2 3.7 22:00:41 10° N 22:04:22 62° E 22:04:22 62° E
Cosmos 1066 Rocket 4.3 22:05:06 43° SSE 22:06:51 62° E 22:12:27 10° NNE
Cosmos 1898 Rocket 3.8 22:11:50 44° ESE 22:12:23 46° ESE 22:17:28 10° NNE
Cosmos 1980 Rocket 4.4 22:07:52 10° WSW 22:12:24 24° NW 22:17:00 10° N
Iridium 4 Rocket 4.2 22:09:01 10° NNE 22:13:16 34° E 22:13:44 33° E
SL-24 R/B - RUBIN 2 3.7 22:10:35 10° NW 22:14:56 61° WSW 22:15:32 55° SSW
ISS -2.8 22:11:54 10° WNW 22:14:21 42° W 22:14:21 42° W
Transit 2A Rocket 4.4 22:12:06 10° NW 22:16:29 71° WSW 22:16:52 66° SSW
Okean 1-7 3.6 22:17:25 41° E 22:17:25 41° E 22:21:24 10° NNE
Cosmos 2322 Rocket 2.1 22:18:02 38° SSW 22:20:17 87° ESE 22:25:56 10° NNE
Cosmos 2180 Rocket 4.4 22:21:19 43° S 22:23:30 84° E 22:29:41 10° N
Okean 3 4.4 22:25:02 35° ENE 22:25:02 35° ENE 22:28:28 10° NNE
Cosmos 2333 Rocket 3.0 22:25:18 34° ESE 22:25:18 34° ESE 22:30:17 10° NE
Cosmos 1844 Rocket 3.0 22:20:55 10° NNW 22:26:26 57° ENE 22:27:57 43° ESE
Cosmos 1805 3.2 22:24:44 10° N 22:28:28 81° N 22:28:28 81° N
BREEZE-M DEB (TANK) 2.3 22:29:16 10° WNW 22:31:52 81° SW 22:31:52 81° SW
ATLAS 2AS CENTAUR R/B 4.2 22:24:44 10° WSW 22:32:00 41° NW 22:39:01 10° NNE
ARIANE 5 R/B 3.7 22:31:11 32° WSW 22:32:06 35° W 22:36:14 10° NNW
ATLAS CENTAUR R/B 2.9 22:32:00 10° NNW 22:36:30 35° NE 22:37:50 30° E
USA 267 4.5 22:31:21 10° E 22:37:17 38° NNE 22:43:13 10° NW
Cosmos 44 Rocket 4.3 22:35:51 10° NW 22:40:00 32° WSW 22:40:10 32° WSW
Cosmos 1733 3.6 22:38:01 10° NNW 22:41:23 56° WNW 22:41:23 56° WNW
Cosmos 1766 3.6 22:39:53 10° N 22:43:23 61° NE 22:43:23 61° NE
Cosmos 2219 Rocket 2.9 22:44:47 36° E 22:44:47 36° E 22:49:39 10° NE
Cosmos 1703 Rocket 3.4 22:48:16 86° E 22:48:16 86° E 22:52:41 10° N
Cosmos 1844 3.8 22:44:22 10° NNW 22:50:12 74° ENE 22:51:27 55° SE
Cosmos 372 Rocket 4.2 22:51:17 51° E 22:51:17 51° E 22:56:12 10° NNE
Meteor 1-4 Rocket 3.9 22:51:02 10° NNW 22:53:35 32° WNW 22:53:35 32° WNW
ATLAS 3B R/B 3.1 22:51:19 10° NW 22:58:32 56° WSW 23:00:38 43° SSW
Cosmos 1707 4.4 23:00:36 26° ENE 23:00:36 26° ENE 23:02:56 10° NNE
SL-16 R/B 3.6 22:55:15 12° WSW 22:59:59 35° NW 23:05:11 10° N
Cosmos 1655 Rocket 4.0 22:56:27 10° N 23:02:41 77° W 23:04:10 54° SSW
Cosmos 1782 Rocket 3.6 23:00:43 10° N 23:04:50 75° NE 23:04:50 75° NE
ERS-2 3.5 23:04:40 10° NNE 23:06:52 32° NE 23:06:52 32° NE
Meteor 2-10 4.3 23:03:09 10° NNW 23:08:14 52° W 23:08:49 49° WSW
CZ-4C R/B 3.7 23:01:42 10° NNW 23:08:39 49° NE 23:14:17 20° ESE
NOSS 3-1 (C) 4.3 23:02:01 10° NNW 23:09:29 66° NE 23:14:03 30° ESE
Cosmos 2237 Rocket 4.1 23:14:56 16° E 23:14:56 16° E 23:17:57 10° ENE
Cosmos 1908 Rocket 4.4 23:11:51 10° NNW 23:15:46 40° W 23:15:46 40° W
COSMOS 2428 3.0 23:17:53 49° ESE 23:17:54 49° ESE 23:23:21 10° NE
Meteor 1-15 Rocket 4.4 23:13:59 10° NNW 23:19:34 61° W 23:20:25 54° SW
Cosmos 1470 3.5 23:16:00 10° N 23:19:01 50° NNE 23:19:01 50° NNE
Cosmos 1726 3.4 23:16:50 10° NNW 23:19:26 36° NW 23:19:26 36° NW
Cosmos 1300 Rocket 3.9 23:16:54 10° N 23:20:51 59° NE 23:20:51 59° NE
Cosmos 2242 Rocket 4.0 23:21:24 56° W 23:21:30 56° W 23:26:00 10° N
ALOS 2 2.6 23:22:00 76° NNE 23:22:00 76° NNE 23:26:07 10° N
Cosmos 1937 Rocket 3.9 23:22:46 48° WSW 23:23:50 58° WNW 23:29:03 10° NNE
Cosmos 2360 Rocket 3.0 23:22:25 30° WSW 23:24:47 46° WNW 23:30:14 10° NNE
Cosmos 1242 Rocket 4.2 23:23:44 10° N 23:26:07 29° NE 23:26:07 29° NE
Okean 2 Rocket 4.0 23:23:53 10° N 23:28:05 38° ENE 23:28:05 38° ENE
In-Cosmos 22 4.3 23:29:31 58° ESE 23:29:55 60° E 23:35:19 10° NNE
Cosmos 2333 4.3 23:29:02 53° WSW 23:30:13 69° WNW 23:35:52 10° NNE
Cosmos 1867 3.5 23:33:44 67° ESE 23:33:44 67° ESE 23:39:09 10° NE
Meteor 1-21 4.2 23:34:35 65° SE 23:35:16 72° E 23:41:04 10° NNE
Cosmos 1626 3.8 23:37:36 28° NE 23:37:36 28° NE 23:39:44 10° NNE
Cosmos 1842 4.4 23:38:57 38° NW 23:38:57 38° NW 23:42:04 10° N
Cosmos 1680 Rocket 4.5 23:39:01 10° NW 23:43:43 34° W 23:43:43 34° W
Meteor 2-17 Rocket 4.4 23:38:36 10° NNW 23:44:45 73° W 23:45:46 61° SSW
Cosmos 1953 4.2 23:41:42 10° NNE 23:44:46 23° ENE 23:44:46 23° ENE
USA 215 3.6 23:39:07 10° NE 23:45:34 65° NW 23:50:59 15° WSW
Cosmos 2278 Rocket 3.4 23:41:15 10° N 23:46:30 37° ENE 23:48:51 26° ESE
Cosmos 1674 3.8 23:50:45 42° NNE 23:50:45 42° NNE 23:53:21 10° NNE
ADEOS Rocket 2.7 23:52:27 69° S 23:53:10 81° WSW 23:59:09 10° NNW
Cosmos 1818 4.1 23:48:01 10° NW 23:52:45 43° WSW 23:52:45 43° WSW
Sich 1 Rocket 3.7 23:50:03 10° N 23:54:00 70° NNW 23:54:00 70° NNW
